TimeCDT,TemperatureF,Dew PointF,Humidity,Sea Level PressureIn,VisibilityMPH,Wind Direction,Wind SpeedMPH,Gust SpeedMPH,PrecipitationIn,Events,Conditions,WindDirDegrees,DateUTC
12:15 AM,78.8,73.9,85,29.99,10.0,SE,4.6,-,N/A,,Clear,130,2013-06-20 05:15:00
12:35 AM,79.3,73.8,83,29.99,10.0,SE,4.6,-,N/A,,Clear,130,2013-06-20 05:35:00
12:55 AM,79.0,73.6,83,29.99,10.0,SE,4.6,-,N/A,,Clear,130,2013-06-20 05:55:00
1:15 AM,79.0,73.8,84,29.99,10.0,ESE,3.5,-,N/A,,Clear,120,2013-06-20 06:15:00
1:35 AM,78.1,73.6,86,29.99,10.0,SE,4.6,-,N/A,,Clear,130,2013-06-20 06:35:00
1:55 AM,78.3,73.8,86,29.99,10.0,SE,5.8,-,N/A,,Clear,140,2013-06-20 06:55:00
2:15 AM,78.8,73.6,84,29.99,10.0,SE,4.6,-,N/A,,Clear,130,2013-06-20 07:15:00
2:35 AM,78.1,73.6,86,29.99,10.0,ESE,4.6,-,N/A,,Scattered Clouds,120,2013-06-20 07:35:00
2:55 AM,77.0,73.8,90,29.98,10.0,ESE,5.8,-,N/A,,Scattered Clouds,120,2013-06-20 07:55:00
3:15 AM,76.5,73.8,91,29.98,10.0,SE,4.6,-,N/A,,Scattered Clouds,130,2013-06-20 08:15:00
3:35 AM,76.5,73.6,91,29.98,10.0,ESE,4.6,-,N/A,,Clear,120,2013-06-20 08:35:00
3:55 AM,76.1,73.6,92,29.98,10.0,ESE,4.6,-,N/A,,Scattered Clouds,120,2013-06-20 08:55:00
4:15 AM,76.5,73.8,91,29.98,10.0,SE,5.8,-,N/A,,Scattered Clouds,140,2013-06-20 09:15:00
4:35 AM,77.5,73.9,89,29.97,10.0,SE,8.1,-,N/A,,Mostly Cloudy,140,2013-06-20 09:35:00
4:55 AM,77.0,73.8,90,29.98,10.0,SE,5.8,-,N/A,,Scattered Clouds,130,2013-06-20 09:55:00
5:15 AM,77.0,73.8,90,29.98,10.0,East,3.5,-,N/A,,Clear,100,2013-06-20 10:15:00
5:35 AM,76.1,73.6,92,29.98,10.0,ESE,4.6,-,N/A,,Scattered Clouds,110,2013-06-20 10:35:00
5:55 AM,76.1,73.8,92,29.99,10.0,ESE,4.6,-,N/A,,Scattered Clouds,110,2013-06-20 10:55:00
6:15 AM,76.6,74.1,92,30.00,10.0,ESE,4.6,-,N/A,,Mostly Cloudy,110,2013-06-20 11:15:00
6:35 AM,76.6,74.1,92,30.01,10.0,ESE,4.6,-,N/A,,Scattered Clouds,120,2013-06-20 11:35:00
6:55 AM,77.0,74.3,91,30.01,10.0,SE,3.5,-,N/A,,Clear,130,2013-06-20 11:55:00
7:15 AM,77.9,74.8,90,30.02,10.0,ESE,6.9,-,N/A,,Clear,120,2013-06-20 12:15:00
7:35 AM,79.2,75.2,88,30.02,10.0,ESE,6.9,-,N/A,,Clear,120,2013-06-20 12:35:00
7:55 AM,80.1,75.4,86,30.03,10.0,SE,6.9,-,N/A,,Clear,140,2013-06-20 12:55:00
8:15 AM,81.0,75.9,85,30.04,10.0,SE,6.9,-,N/A,,Scattered Clouds,140,2013-06-20 13:15:00
8:35 AM,81.5,76.1,84,30.05,10.0,SE,6.9,-,N/A,,Mostly Cloudy,140,2013-06-20 13:35:00
8:55 AM,81.9,76.5,84,30.05,10.0,South,4.6,-,N/A,,Overcast,170,2013-06-20 13:55:00
9:15 AM,82.9,77.0,82,30.06,10.0,SE,5.8,-,N/A,,Mostly Cloudy,140,2013-06-20 14:15:00
9:35 AM,83.8,77.4,81,30.06,10.0,SSE,6.9,-,N/A,,Mostly Cloudy,150,2013-06-20 14:35:00
9:55 AM,85.3,77.2,77,30.06,10.0,South,5.8,-,N/A,,Scattered Clouds,190,2013-06-20 14:55:00
10:15 AM,86.9,77.7,74,30.06,10.0,South,6.9,-,N/A,,Scattered Clouds,180,2013-06-20 15:15:00
10:35 AM,87.1,77.2,72,30.06,10.0,SE,5.8,-,N/A,,Clear,140,2013-06-20 15:35:00
10:55 AM,88.9,77.4,69,30.06,10.0,SSE,6.9,-,N/A,,Clear,150,2013-06-20 15:55:00
11:15 AM,89.4,76.8,66,30.06,10.0,South,8.1,-,N/A,,Scattered Clouds,170,2013-06-20 16:15:00
11:35 AM,90.3,75.7,62,30.06,10.0,SSE,5.8,-,N/A,,Scattered Clouds,160,2013-06-20 16:35:00
11:55 AM,90.9,75.9,61,30.06,10.0,South,5.8,-,N/A,,Scattered Clouds,170,2013-06-20 16:55:00
12:15 PM,92.1,78.4,64,30.06,10.0,SSE,6.9,-,N/A,,Scattered Clouds,150,2013-06-20 17:15:00
12:35 PM,91.9,77.4,62,30.05,10.0,SE,6.9,-,N/A,,Scattered Clouds,130,2013-06-20 17:35:00
12:55 PM,92.1,77.5,62,30.05,10.0,SSE,6.9,16.1,N/A,,Scattered Clouds,150,2013-06-20 17:55:00
1:15 PM,93.0,77.4,60,30.04,10.0,South,5.8,-,N/A,,Clear,170,2013-06-20 18:15:00
1:35 PM,93.2,76.8,59,30.04,10.0,SSE,6.9,-,N/A,,Scattered Clouds,150,2013-06-20 18:35:00
1:55 PM,94.3,77.5,58,30.03,10.0,SSE,8.1,-,N/A,,Clear,160,2013-06-20 18:55:00
2:15 PM,94.3,77.0,57,30.03,10.0,SSE,8.1,-,N/A,,Scattered Clouds,150,2013-06-20 19:15:00
2:35 PM,94.5,76.5,56,30.03,10.0,SE,9.2,-,N/A,,Scattered Clouds,140,2013-06-20 19:35:00
2:55 PM,93.9,75.7,55,30.02,10.0,SSE,12.7,16.1,N/A,,Scattered Clouds,160,2013-06-20 19:55:00
3:15 PM,95.0,75.2,53,30.02,10.0,SSE,6.9,16.1,N/A,,Scattered Clouds,160,2013-06-20 20:15:00
3:35 PM,95.7,76.5,54,30.01,10.0,SSE,6.9,-,N/A,,Scattered Clouds,160,2013-06-20 20:35:00
3:55 PM,94.5,76.8,56,30.01,10.0,South,5.8,-,N/A,,Scattered Clouds,170,2013-06-20 20:55:00
4:15 PM,95.2,76.8,55,30.01,10.0,SSE,8.1,-,N/A,,Scattered Clouds,150,2013-06-20 21:15:00
4:35 PM,95.2,76.1,54,30.00,10.0,SSE,8.1,-,N/A,,Scattered Clouds,160,2013-06-20 21:35:00
4:55 PM,95.0,76.1,54,29.99,10.0,SE,9.2,-,N/A,,Scattered Clouds,140,2013-06-20 21:55:00
5:15 PM,95.0,75.6,53,29.99,10.0,SSE,8.1,-,N/A,,Scattered Clouds,150,2013-06-20 22:15:00
5:35 PM,93.7,74.8,54,29.99,10.0,South,9.2,16.1,N/A,,Scattered Clouds,170,2013-06-20 22:35:00
5:55 PM,94.3,74.5,52,29.98,10.0,SSE,11.5,-,N/A,,Scattered Clouds,160,2013-06-20 22:55:00
6:15 PM,94.1,73.9,52,29.98,10.0,South,10.4,-,N/A,,Clear,170,2013-06-20 23:15:00
6:35 PM,93.7,74.1,53,29.98,10.0,South,8.1,-,N/A,,Clear,170,2013-06-20 23:35:00
6:55 PM,93.2,74.1,54,29.98,10.0,South,5.8,-,N/A,,Clear,170,2013-06-20 23:55:00
7:15 PM,92.7,74.5,55,29.98,10.0,SSE,5.8,-,N/A,,Clear,160,2013-06-21 00:15:00
7:35 PM,91.4,74.8,58,29.98,10.0,South,4.6,-,N/A,,Clear,170,2013-06-21 00:35:00
7:55 PM,90.7,74.5,59,29.98,10.0,SSE,4.6,-,N/A,,Clear,160,2013-06-21 00:55:00
8:15 PM,89.6,75.2,62,29.98,10.0,SSE,3.5,-,N/A,,Clear,150,2013-06-21 01:15:00
8:35 PM,88.2,75.2,65,29.98,10.0,SE,3.5,-,N/A,,Clear,140,2013-06-21 01:35:00
8:55 PM,86.9,75.6,69,29.98,10.0,SE,3.5,-,N/A,,Clear,140,2013-06-21 01:55:00
9:15 PM,86.5,75.4,69,29.98,10.0,SE,4.6,-,N/A,,Clear,140,2013-06-21 02:15:00
9:35 PM,86.4,75.4,70,29.98,10.0,SE,4.6,-,N/A,,Clear,140,2013-06-21 02:35:00
9:55 PM,85.5,75.9,73,29.99,10.0,SE,4.6,-,N/A,,Clear,130,2013-06-21 02:55:00
10:15 PM,85.1,75.6,73,30.01,10.0,SE,3.5,-,N/A,,Clear,140,2013-06-21 03:15:00
10:35 PM,84.7,75.7,74,30.01,10.0,SE,4.6,-,N/A,,Clear,140,2013-06-21 03:35:00
10:55 PM,84.2,76.1,77,30.02,10.0,SE,5.8,-,N/A,,Clear,140,2013-06-21 03:55:00
11:15 PM,84.0,76.1,77,30.02,10.0,SE,5.8,-,N/A,,Clear,140,2013-06-21 04:15:00
11:35 PM,84.2,76.3,77,30.03,10.0,SE,6.9,-,N/A,,Clear,130,2013-06-21 04:35:00
11:55 PM,83.8,76.3,78,30.03,10.0,SE,4.6,-,N/A,,Clear,140,2013-06-21 04:55:00